User: anonymous   Login
Location: Unspecified
(0.0000°N, 0.0000°E)
Time: 22:20:41
(UTC+00:00)
Language:

STARLINK-34552 - Orbit

View from above orbital plane
View from above orbital plane
View from above satellite
View from above satellite

Ground track
Ground track

The orbit is defined by the following mean orbital elements,

1 64731U          26145.49227264 +.00000000 +00000-0 +37244-3 0 00001
2 64731  53.1577 184.0905 0001098  78.4443 281.6681 15.30206777    06
Epoch (UTC): 25 May 2026 11:48:52
Eccentricity: 0.0001098
inclination: 53.1577°
perigee height: 474 km
apogee height: 476 km
right ascension of ascending node: 184.0905°
argument of perigee: 78.4443°
revolutions per day: 15.30206777
mean anomaly at epoch: 281.6681°

The dashed part of the orbit path shows where the satellite is in the earth's shadow,  

DLR